Regional Weather Roundup
Issued by NWS

Home | Current Version | Previous Version | Text Only | Print | Product List | Glossary On
Versions: 1 2 3 4 5 6 7 8 9 10 11 12 13 14 15 16 17 18 19 20 21 22 23 24 25 26 27 28 29 30 31 32 33 34 35 36 37 38 39 40 41 42 43 44 45 46 47 48 49 50
000
ASUS43 KBIS 131602
RWRND

NORTH DAKOTA REGIONAL WEATHER ROUNDUP
NATIONAL WEATHER SERVICE BISMARCK ND
1000 AM CST WED DEC 13 2017

NOTE: "FAIR" INDICATES FEW OR NO CLOUDS BELOW 12,000 FEET WITH NO
SIGNIFICANT WEATHER AND/OR OBSTRUCTIONS TO VISIBILITY.


NDZ001>003-009>011-017-131700-
NORTHWEST NORTH DAKOTA

CITY           SKY/WX    TMP DP  RH WIND       PRES   REMARKS
WILLISTON      CLOUDY    35  26  69 NW18G25   30.01R
MINOT          CLOUDY    35  27  72 NW18      29.90R
MINOT AFB      CLOUDY    34  27  76 NW17      29.88R
$$

NDZ018>021-031>035-040>046-131700-
SOUTHWEST NORTH DAKOTA

CITY           SKY/WX    TMP DP  RH WIND       PRES   REMARKS
BISMARCK       CLOUDY    36  29  75 NW20G29   29.91R
DICKINSON      CLOUDY    32  26  78 NW21G29   29.95R WCI  20
GARRISON         N/A     33  27  78 N30G38    29.91R WCI  19
HETTINGER ARPT SUNNY     34  25  69 NW26G36   29.99R
$$

NDZ004>008-012>016-024-026-027-054-131700-
NORTHEAST NORTH DAKOTA

CITY           SKY/WX    TMP DP  RH WIND       PRES   REMARKS
GRAND FORKS    CLOUDY    27  25  92 N22G35    29.76R WCI  13
GRND FRKS AFB  CLOUDY    27  24  91 N21G26    29.77R WCI  13
DEVILS LAKE    MIX PCPN  31  28  89 NW13      29.81R
$$

NDZ022-023-025-028>030-036>039-047>053-131700-
SOUTHEAST NORTH DAKOTA

CITY           SKY/WX    TMP DP  RH WIND       PRES   REMARKS
FARGO          CLOUDY    29  25  85 N22G30    29.75R WCI  15
JAMESTOWN      CLOUDY    32  30  92 N18       29.79R
$$





USA.gov is the U.S. government's official web portal to all federal, state and local government web resources and services.